Location: Asheville, NC
(35.6000°N, 82.5500°W)
Time: 22:35:40
(UTC-04:00)

HO-68 - Pass Details

Date: 10 January 2018
Orbit: 1193 x 1204 km, 100.1° (Epoch: 26 April)

Event Time Altitude Azimuth Distance (km) Brightness Sun altitude
Rises 18:41:04 0° 163° (SSE) 4,087 ? -13.1°
Reaches altitude 10° 18:43:40 10° 163° (SSE) 3,124 ? -13.6°
Maximum altitude 18:50:50 89° 69° (ENE) 1,201 ? -15.0°
Drops below altitude 10° 18:58:02 10° 346° (NNW) 3,133 ? -16.4°
Sets 19:00:38 0° 346° (NNW) 4,100 ? -16.9°
